Theta_e
321 318 317 322 325 321 317 319 324 326 328 331 334 332 329 338 341 333 328 329 329 329 328 327 327 327 326 325 324 323 321 320 319 317 315 313 311 310 310 310 310 310 311 312 312 314 316 317 320 322 323 324 324 324 325 325 325 326 325 326 325 323 324 326 327 327 327 326 326 326 325 324 323 323 323 322 321 320 321 321 319 316 315 316 315 315 315
321 317 317 322 325 322 318 318 321 324 327 329 331 331 331 333 333 329 329 329 326 325 326 327 327 327 326 323 322 321 319 318 317 315 312 311 309 308 308 307 307 307 306 307 306 306 307 308 311 314 318 320 321 323 323 323 324 324 325 325 324 324 323 324 325 326 327 327 326 325 324 324 324 324 323 322 322 322 321 321 320 317 317 316 316 315 315
320 317 316 318 319 319 317 319 320 321 325 328 329 331 331 329 328 325 325 327 325 323 324 324 325 326 324 321 319 319 316 315 314 312 311 310 309 308 307 306 306 305 305 305 305 305 305 304 305 306 308 311 314 317 321 323 323 322 322 323 323 323 323 322 323 325 325 326 325 324 324 324 324 324 323 323 323 322 322 322 322 320 319 319 318 318 316
322 320 319 318 317 317 319 322 320 319 324 328 328 328 329 328 326 323 324 325 324 323 324 323 323 325 325 321 318 316 314 313 312 311 310 309 308 307 307 306 306 305 304 303 303 303 303 303 304 304 305 305 306 308 312 318 320 317 315 316 316 317 318 319 321 323 323 323 323 323 323 323 323 323 322 323 323 323 322 322 322 322 321 320 320 320 319
323 321 321 321 321 322 323 322 318 316 321 326 325 326 327 325 323 323 325 324 321 322 324 323 322 321 319 316 315 314 312 310 309 308 307 307 306 306 306 305 305 305 304 303 302 302 302 302 302 302 304 304 304 304 306 310 312 311 310 310 310 310 310 310 313 317 319 320 320 321 322 322 323 323 322 322 322 323 324 323 323 323 322 321 320 320 320
321 321 323 325 326 325 322 319 316 316 320 324 324 325 325 323 321 321 321 321 320 320 320 318 315 312 311 311 310 309 309 308 307 306 306 305 305 305 304 304 304 303 303 302 301 301 301 301 301 301 302 303 303 304 305 306 307 307 308 308 307 307 307 307 308 309 312 314 315 316 317 319 321 322 322 322 323 323 324 324 323 324 324 323 321 321 321
321 321 324 326 325 322 319 316 314 315 318 320 321 322 321 321 320 319 319 320 319 316 314 313 311 309 309 309 308 307 307 306 306 306 305 305 305 304 303 303 303 302 302 302 302 301 301 300 300 300 301 302 303 303 304 305 305 305 306 306 306 306 306 306 307 307 307 308 309 311 312 313 315 316 318 318 319 321 323 323 323 322 323 323 323 322 322
320 322 324 324 321 318 317 316 313 312 315 317 318 320 320 319 319 318 318 318 314 312 312 312 310 309 309 308 308 308 307 305 305 304 304 303 303 303 301 301 301 301 301 302 301 300 300 300 299 299 300 302 303 302 303 304 305 305 305 305 305 304 305 305 305 306 306 306 306 308 309 310 311 312 313 313 314 315 318 320 321 322 322 322 323 323 323
320 324 322 320 319 318 316 316 313 311 312 312 315 320 320 317 318 318 317 314 312 311 310 310 309 309 309 309 308 307 305 305 304 304 303 302 301 300 299 298 299 299 299 300 299 298 298 299 299 299 299 300 301 302 302 304 304 304 304 303 303 303 304 304 304 303 304 304 304 306 307 308 309 309 310 311 311 311 312 313 316 318 319 320 320 321 322
319 324 322 319 320 320 317 315 314 312 312 310 312 319 320 316 316 317 314 312 312 312 311 310 310 309 309 309 308 306 305 303 303 302 302 302 301 300 299 299 299 298 298 298 298 297 299 299 299 300 300 300 300 300 301 303 304 303 303 303 303 303 303 303 302 302 303 303 303 304 305 306 306 307 308 309 309 310 309 309 309 311 313 315 317 319 320
318 320 321 320 320 318 314 313 313 313 312 311 314 320 320 318 315 313 311 310 310 311 311 310 310 309 309 309 307 304 302 302 301 300 300 300 301 301 300 300 300 300 300 300 299 299 299 299 299 300 300 300 301 301 301 303 303 303 302 302 302 302 301 301 302 302 302 303 303 303 303 303 304 304 305 306 307 307 306 306 306 308 309 311 313 316 318
318 319 319 318 317 315 312 311 311 311 311 313 317 319 318 319 317 312 310 310 311 311 311 311 310 309 308 307 304 302 301 301 300 300 300 299 300 300 300 300 301 301 301 301 300 300 300 299 300 300 299 300 301 302 302 303 303 302 301 301 300 300 301 301 301 301 301 301 301 301 302 302 302 302 302 303 304 303 303 304 305 307 308 309 310 312 315
317 318 318 316 314 311 309 309 309 309 310 314 317 318 317 317 315 312 310 310 311 311 310 310 309 307 306 304 302 301 301 301 301 301 300 299 299 299 300 300 300 301 301 301 301 300 300 300 301 301 301 301 302 301 302 302 302 301 300 300 300 301 301 301 301 301 301 301 301 301 301 301 301 302 302 302 302 302 303 303 304 305 306 307 308 308 310
316 316 316 315 313 309 308 310 309 309 313 316 314 312 312 312 310 308 308 309 308 307 307 307 306 305 304 303 302 302 302 302 301 300 300 300 299 299 299 299 299 300 301 301 301 301 301 301 301 301 301 302 301 301 301 302 301 300 300 301 301 301 301 301 301 300 301 301 300 301 301 301 301 301 301 301 302 302 302 302 303 304 304 305 306 306 307
314 316 315 314 312 309 308 311 310 309 312 314 311 308 308 308 306 306 307 306 306 305 305 305 305 304 303 303 303 303 303 302 301 300 300 300 300 299 299 298 299 300 300 300 301 301 301 301 301 301 301 301 301 301 301 302 300 300 301 300 300 300 300 300 300 300 300 300 300 300 300 300 300 301 301 301 301 301 301 301 302 302 303 303 304 305 306
313 314 312 311 310 308 307 309 309 307 307 309 308 306 306 306 305 305 305 305 305 305 304 304 304 303 303 303 302 303 303 302 301 300 301 301 300 300 299 299 298 299 300 300 301 301 301 301 301 301 301 301 301 301 301 301 300 300 300 300 300 300 300 300 300 300 299 300 299 300 300 300 299 300 300 300 300 300 300 300 301 301 301 302 302 303 304
310 311 309 308 307 307 307 307 307 306 305 305 305 304 304 303 303 302 303 304 304 305 304 303 303 302 302 302 302 302 302 301 300 300 300 300 301 300 299 299 299 299 300 300 301 301 301 301 301 301 301 301 301 301 301 300 300 300 300 299 299 299 299 299 299 299 299 299 299 299 299 299 299 299 299 299 299 299 300 300 300 301 301 301 300 301 302
308 308 307 306 306 307 306 306 306 305 305 304 303 303 303 303 302 301 302 302 302 303 303 302 302 302 302 302 302 302 302 300 300 300 300 300 300 300 300 299 299 299 300 300 301 301 301 301 301 300 300 300 300 300 300 299 299 299 299 299 299 298 298 299 298 298 299 299 299 299 299 299 299 299 299 299 299 299 300 300 299 299 299 299 298 298 299
309 309 307 306 307 306 305 305 305 304 304 303 303 303 303 303 302 302 302 301 301 302 302 302 302 302 302 302 302 302 302 301 299 300 300 300 300 300 299 299 299 299 300 300 300 300 300 300 300 300 300 300 299 299 299 299 299 299 299 299 298 298 298 298 298 298 298 298 298 298 298 298 298 298 298 299 298 299 298 298 298 298 298 298 298 297 298
309 308 307 306 307 306 305 305 305 304 304 304 303 302 302 303 302 302 301 301 301 301 302 302 302 302 302 302 301 302 301 300 299 299 299 299 299 299 299 299 299 299 299 299 300 300 299 299 299 299 299 299 299 299 299 299 299 299 299 298 298 298 298 298 298 298 298 298 298 298 297 298 298 298 298 298 298 298 298 298 298 298 297 297 297 297 297
308 307 305 306 306 305 304 304 303 304 304 304 303 303 303 303 303 303 302 301 301 301 302 302 302 302 302 300 300 300 300 298 298 299 298 298 298 298 298 298 298 299 299 299 299 299 299 299 299 299 299 299 299 299 298 299 299 299 298 298 298 297 297 297 297 298 298 297 297 297 297 297 297 297 297 297 297 297 297 297 297 297 297 297 297 297 297
308 307 306 306 307 305 303 303 303 304 305 304 304 304 304 303 303 303 303 302 301 301 301 300 300 301 301 299 298 299 299 298 298 298 298 297 297 297 297 297 298 298 299 299 299 299 299 299 299 299 299 299 298 299 299 299 299 298 298 298 297 297 297 297 297 297 297 297 297 297 297 297 297 296 296 296 296 296 296 297 297 297 297 297 296 297 297
308 306 305 306 307 306 304 303 304 304 303 304 303 303 303 303 302 302 303 303 302 301 301 299 299 299 299 298 298 298 298 298 297 297 297 297 297 297 297 297 298 298 298 298 299 299 299 299 299 299 298 298 299 299 299 298 298 298 298 297 297 297 297 296 296 297 297 297 296 296 296 296 296 296 296 296 296 296 296 296 296 296 296 296 296 296 297
306 305 304 304 304 304 304 304 303 302 301 302 302 302 302 301 300 299 300 301 301 302 301 299 298 298 297 297 297 297 297 296 296 296 296 296 296 297 297 297 297 298 298 298 298 298 298 299 299 298 298 298 299 299 299 298 298 298 297 297 297 297 296 296 296 296 296 296 296 296 296 296 296 296 296 296 296 296 296 295 295 295 296 296 296 296 297
304 304 304 304 304 304 304 304 303 301 300 300 301 301 300 299 298 298 298 298 298 299 298 297 297 297 297 297 297 297 296 295 295 296 296 296 296 296 297 297 297 297 298 298 298 298 298 298 298 298 298 299 299 298 298 298 298 297 297 297 297 297 297 297 297 297 296 296 296 296 296 296 296 296 296 295 295 295 295 295 295 295 295 295 295 296 297
305 304 304 303 303 303 303 302 302 301 299 299 300 300 298 297 298 298 297 297 297 298 297 296 296 296 296 296 296 296 296 296 296 296 296 296 296 296 296 296 296 296 297 297 298 298 298 298 298 298 298 299 298 298 298 298 298 298 298 298 298 297 297 297 297 297 297 296 296 296 296 296 296 296 296 295 295 295 295 295 295 294 294 294 295 295 296
304 305 304 302 301 302 302 302 301 300 299 298 298 299 298 298 298 297 296 296 297 297 297 297 296 296 296 296 296 296 296 296 296 296 296 296 295 295 296 296 296 296 297 297 297 298 298 298 298 298 299 298 298 298 298 298 298 298 298 298 297 297 297 297 297 297 296 295 295 295 295 295 295 295 295 295 295 295 294 294 294 294 294 294 294 295 295
303 303 303 302 300 300 301 301 300 299 298 298 298 298 298 298 298 298 297 297 297 297 297 297 296 296 296 296 296 296 296 296 296 296 295 295 295 295 295 295 295 296 296 296 297 297 298 298 298 298 298 298 298 298 298 298 298 298 298 297 297 297 297 297 296 296 295 295 294 294 294 294 294 294 294 295 295 295 294 294 294 293 293 293 294 295 295
302 302 302 301 299 298 298 298 298 298 299 298 298 298 298 298 299 299 298 297 297 297 296 296 296 296 296 296 296 296 296 295 295 294 294 294 295 295 295 295 295 295 295 296 296 296 297 298 298 298 298 299 298 298 298 298 298 297 297 297 297 297 297 296 296 295 295 295 295 294 294 293 294 294 294 294 294 294 294 293 293 293 293 294 294 295 295
301 302 303 302 300 299 299 298 299 300 300 298 298 298 298 298 299 300 299 298 297 296 296 296 296 296 296 296 295 295 294 293 293 292 292 293 294 294 295 295 295 295 295 295 295 296 297 297 297 298 298 298 298 298 298 298 298 297 297 297 297 297 296 296 296 295 295 295 295 294 294 293 293 294 294 293 293 293 293 293 293 293 294 294 294 295 296
302 303 304 303 302 301 300 300 300 300 300 298 299 299 299 298 299 300 299 298 296 296 296 296 295 295 295 294 294 293 292 291 290 290 291 292 293 293 293 293 294 294 294 294 295 295 296 296 297 298 298 298 297 297 299 298 298 297 297 297 297 297 296 296 295 295 295 295 295 295 294 294 294 293 293 293 293 293 293 294 294 294 294 294 295 295 297
302 303 303 302 301 300 301 300 300 299 299 299 300 300 299 299 299 299 299 298 296 296 296 295 295 294 294 293 292 291 290 289 289 290 291 292 292 292 292 292 293 293 293 294 295 295 296 297 298 298 298 297 297 297 298 298 297 297 297 297 297 296 296 296 295 295 295 295 294 294 294 294 294 294 293 293 293 294 294 294 294 294 294 294 295 295 296
302 302 301 301 300 300 300 300 300 299 299 299 299 299 298 297 298 298 297 297 296 296 296 295 294 293 292 291 290 289 288 290 291 291 291 292 292 292 292 292 292 293 294 295 295 296 296 297 298 297 297 297 297 297 298 298 297 297 297 297 296 296 296 295 295 295 295 295 295 295 295 294 294 294 294 294 293 294 294 294 295 295 294 294 294 295 295
301 301 300 300 300 300 299 299 299 300 300 299 298 297 297 297 297 297 297 296 296 296 296 295 294 292 291 289 288 288 289 291 292 292 292 293 293 292 292 291 292 293 294 295 296 296 297 297 297 297 297 297 297 297 298 297 297 297 297 296 296 296 295 295 295 295 295 295 295 295 295 295 295 295 295 295 294 294 295 295 295 294 294 294 294 295 295
299 300 299 299 298 298 298 298 298 299 300 300 298 297 297 298 297 296 296 296 295 295 295 294 292 291 289 289 288 288 289 290 291 292 292 292 292 291 290 290 291 292 293 295 296 296 297 297 297 297 297 296 296 297 297 297 297 297 297 296 296 295 295 294 295 295 295 295 296 296 295 295 296 296 295 295 295 295 295 295 294 294 294 294 294 295 295
299 299 298 298 298 297 297 297 297 297 298 298 297 297 297 297 297 296 296 296 295 295 294 292 291 290 289 289 288 288 289 290 291 291 291 291 291 290 290 289 289 290 292 295 296 296 297 297 297 296 297 297 297 297 297 296 297 297 296 296 295 295 294 294 295 295 295 295 295 295 295 295 295 296 296 296 296 295 294 294 294 294 294 294 295 295 295
298 298 298 297 297 297 297 297 297 297 297 297 297 297 297 297 297 296 296 296 295 294 293 293 292 291 290 289 288 288 288 289 290 291 291 291 291 290 289 288 288 289 292 294 295 296 296 296 295 296 297 297 297 297 296 296 297 296 296 295 295 294 294 294 294 294 294 294 294 294 294 295 295 295 296 296 295 295 294 294 294 294 294 295 295 295 294
298 298 297 297 297 297 298 297 297 297 297 297 297 297 297 296 296 296 296 296 295 295 294 293 292 291 290 290 289 288 288 289 290 292 292 291 290 289 288 288 289 291 293 294 294 295 295 294 294 295 297 296 296 296 296 296 296 296 296 295 295 294 294 294 294 294 294 294 294 294 294 294 294 295 295 295 295 294 294 294 294 294 294 294 294 294 294
298 298 297 297 297 297 297 298 298 297 297 297 297 297 296 296 296 296 296 296 296 295 294 293 292 292 292 291 290 290 289 290 291 292 291 291 290 289 288 288 289 291 293 293 292 293 294 293 294 295 295 295 296 296 296 295 296 296 296 295 294 294 293 293 293 293 293 293 293 293 293 293 293 294 294 294 294 294 294 294 293 293 293 293 292 293 293
298 298 298 298 298 297 297 298 298 297 297 297 297 297 297 296 296 296 296 296 295 295 294 293 293 293 293 292 292 292 291 291 292 292 291 290 290 289 288 289 290 292 293 293 292 292 293 294 294 294 294 294 295 296 295 295 296 296 296 295 295 294 294 293 293 293 293 293 293 292 292 293 293 293 294 294 294 294 294 293 293 293 293 292 292 292 292
298 298 298 298 297 297 297 298 298 297 297 297 297 297 297 297 296 296 296 296 295 295 294 294 294 293 293 292 293 292 292 292 293 292 291 290 289 288 288 290 292 293 294 294 292 292 293 294 294 294 293 293 295 296 295 295 295 296 296 295 295 294 294 293 292 292 292 292 292 292 292 292 293 293 293 293 294 293 293 293 293 292 292 292 291 292 291
298 298 298 298 297 297 297 297 297 297 297 297 297 297 297 297 297 297 296 296 295 294 294 293 293 293 292 292 292 292 292 293 293 293 292 291 291 291 291 292 293 294 294 292 290 291 293 294 294 293 292 293 295 295 294 295 296 296 296 295 295 295 294 293 292 292 292 292 292 291 292 292 292 292 292 293 293 293 293 292 292 292 292 291 291 291 291
298 298 298 298 298 297 297 297 297 297 297 297 297 297 297 297 297 297 297 296 295 295 295 294 293 292 292 292 291 291 291 292 292 293 293 293 293 293 293 292 293 294 292 290 290 291 293 294 293 292 291 293 295 295 294 295 296 296 296 295 295 295 294 293 292 291 291 292 291 291 291 292 292 292 292 292 292 292 292 292 292 292 291 291 291 291 291
298 298 298 298 298 298 298 298 297 297 297 297 297 297 298 297 297 297 297 297 296 296 295 294 293 293 292 291 290 290 290 291 292 293 293 292 293 293 293 292 292 292 291 289 290 291 293 293 292 291 291 293 294 294 293 295 296 296 296 295 295 294 294 293 292 291 291 291 291 291 291 291 292 292 292 292 292 292 292 292 292 291 291 291 291 291 291
298 298 298 298 298 298 298 298 298 297 297 297 297 297 298 297 298 297 297 297 296 296 295 294 294 293 292 292 291 291 291 292 292 292 292 292 292 292 291 291 291 290 289 288 290 292 293 293 292 290 290 293 294 293 293 294 295 295 295 295 295 294 294 294 292 292 291 291 291 291 291 291 291 292 292 292 292 292 291 291 291 291 291 291 290 290 290
298 298 298 298 298 298 298 298 297 297 297 297 297 297 297 297 297 298 297 297 297 296 296 295 294 294 293 292 292 292 292 292 292 291 291 291 292 292 291 292 292 290 288 288 291 292 292 291 290 289 291 293 293 293 293 294 294 294 294 294 294 294 294 294 293 292 291 291 291 291 291 291 291 291 291 291 291 291 291 291 291 291 291 290 290 290 290
298 298 298 298 298 298 298 298 297 297 297 297 297 297 297 297 297 297 297 297 297 297 296 295 295 294 293 292 292 292 292 291 291 291 290 290 291 292 291 292 291 289 287 288 290 291 289 288 288 289 291 293 292 292 293 294 293 293 294 293 293 294 294 293 293 292 292 291 291 291 291 291 291 291 291 291 291 291 291 291 291 290 290 290 290 289 289
298 298 298 298 298 298 298 298 298 297 297 297 297 297 297 297 297 297 297 297 297 296 296 296 295 295 293 292 292 292 292 291 291 291 290 290 291 291 290 289 288 286 285 287 289 287 286 286 289 291 292 292 292 292 292 292 292 293 293 293 293 293 293 293 293 293 292 292 291 291 291 291 291 291 290 290 290 290 290 290 290 290 289 289 289 289 289
299 298 298 297 297 297 297 298 298 297 296 297 297 297 297 297 297 297 297 297 297 297 297 296 296 295 294 293 292 292 291 291 292 291 290 290 291 291 290 289 287 285 286 289 290 287 286 288 291 292 292 292 292 292 291 291 291 291 291 291 292 292 292 292 292 292 292 291 291 291 291 291 290 290 290 290 290 290 290 289 289 289 289 289 288 288 288
299 298 298 297 297 297 298 298 297 296 296 296 297 297 297 297 297 297 297 297 296 296 296 296 296 296 295 293 293 292 291 291 292 292 291 291 291 291 291 289 287 286 288 292 292 289 288 289 291 291 291 291 291 291 291 290 290 290 290 289 290 291 291 291 291 291 291 291 291 291 291 290 290 290 290 290 290 289 289 289 289 289 289 288 288 288 288
299 299 298 298 297 297 297 297 297 297 297 297 297 297 297 297 297 297 297 296 296 296 296 296 296 296 295 293 293 292 291 291 292 292 291 291 291 291 290 289 287 286 288 291 292 290 289 290 290 290 291 291 290 290 290 290 290 290 290 290 290 290 290 290 290 290 290 290 290 290 290 290 290 289 289 289 289 289 289 289 289 288 288 288 288 288 287
299 299 298 297 297 297 297 297 297 297 297 297 297 296 296 297 297 297 297 297 296 297 297 296 296 296 296 294 293 292 291 291 291 291 291 291 290 290 290 290 288 286 287 290 291 291 290 290 290 289 289 289 289 289 290 290 290 290 290 290 290 290 290 290 290 290 290 290 290 289 289 289 289 289 288 288 288 288 288 288 288 288 287 287 287 287 286
Wind_Speed
4 4 8 7 5 5 7 10 11 11 12 11 9 3 1 5 6 3 4 7 10 7 6 9 7 6 8 9 9 10 10 11 12 13 15 15 15 14 12 11 11 10 9 8 10 12 11 10 12 16 19 21 21 21 21 20 19 18 16 16 15 13 12 14 15 13 11 11 11 11 11 10 9 9 12 12 11 12 11 9 12 15 13 11 13 13 12
4 1 7 9 6 3 5 9 9 9 10 10 10 6 5 10 10 9 12 11 8 6 5 8 7 4 5 9 10 11 12 13 13 14 15 15 15 14 13 13 13 12 11 14 18 20 21 22 20 18 18 19 17 16 17 17 17 17 17 16 16 13 10 9 11 10 10 9 8 9 10 10 9 8 9 11 10 11 10 7 9 15 14 12 13 13 13
5 4 6 9 8 4 4 8 11 10 9 8 8 7 7 10 9 11 15 13 8 6 6 8 9 2 2 9 12 12 12 13 14 14 14 14 14 14 13 13 13 12 13 16 19 22 23 25 26 26 26 24 20 15 14 15 16 17 16 15 15 14 9 5 4 7 9 8 7 9 9 8 7 6 6 8 7 7 8 5 4 9 11 11 11 11 11
0 4 3 3 7 6 6 9 13 13 7 3 4 4 5 4 7 11 13 9 5 7 7 8 10 5 2 9 14 13 12 13 13 13 13 13 14 13 12 12 12 12 13 16 19 22 23 25 27 28 28 28 28 25 19 15 16 20 23 22 20 19 14 9 5 5 6 6 4 5 7 6 4 3 4 5 5 6 8 7 6 6 7 8 9 9 10
3 6 7 2 4 5 5 5 8 10 6 1 5 5 6 4 4 7 8 5 4 8 10 9 10 8 6 7 10 10 12 14 14 14 14 13 12 12 12 12 11 11 13 17 20 22 23 25 27 28 29 28 28 29 29 24 21 24 28 29 28 27 25 23 19 13 9 8 7 5 3 3 2 2 3 4 4 5 7 9 10 11 10 10 10 10 11
2 5 6 5 5 4 2 3 5 7 4 3 7 6 5 5 2 3 7 7 6 8 10 10 11 11 10 11 13 12 12 13 13 13 13 12 11 11 11 10 11 12 15 18 21 23 24 25 27 28 29 29 28 29 31 32 30 29 29 29 28 27 26 25 24 22 19 15 13 11 9 5 2 1 1 3 4 6 7 9 11 12 13 13 13 12 11
0 3 5 4 3 2 1 3 7 9 7 7 8 10 9 7 7 7 7 8 10 10 10 11 13 14 14 15 15 14 12 11 11 12 11 10 10 9 9 9 10 13 16 18 21 23 23 25 27 29 28 27 28 30 30 31 31 30 29 28 26 24 23 22 22 22 22 21 18 16 14 13 10 7 6 6 5 5 7 8 9 10 11 13 14 15 14
1 2 3 2 1 2 3 5 9 11 9 10 8 7 7 6 10 9 6 7 11 13 11 11 13 14 14 14 12 12 13 12 11 10 9 9 9 8 7 9 10 13 16 18 19 20 21 23 26 26 26 24 24 26 27 28 28 26 26 25 23 22 21 19 19 19 20 21 20 18 17 16 14 12 11 11 10 9 7 7 9 10 11 12 13 14 16
1 3 3 2 1 3 4 4 5 5 4 8 6 2 4 4 4 8 9 10 11 12 12 12 12 13 13 11 9 11 13 13 12 12 11 10 10 11 12 12 13 14 16 17 18 18 21 23 23 23 23 23 21 22 24 24 23 21 20 21 20 19 18 15 15 15 16 18 19 18 17 17 16 15 14 12 12 12 11 12 11 12 13 14 14 14 15
1 3 3 2 1 1 1 3 4 2 4 10 7 1 3 8 7 4 9 11 10 10 11 11 10 11 12 8 6 8 11 12 12 12 13 13 13 13 13 12 12 13 15 16 17 18 19 20 20 19 19 20 20 20 20 20 18 18 17 16 15 15 15 13 12 12 13 13 14 13 13 14 15 15 15 14 14 14 14 15 15 15 16 17 17 17 17
1 3 3 2 2 1 1 4 4 2 5 10 7 4 2 6 7 7 9 10 9 8 8 7 8 9 8 5 5 7 10 11 12 11 11 13 13 12 11 10 9 10 11 12 12 14 15 15 14 13 12 13 15 15 16 16 15 15 15 14 12 11 12 11 10 11 11 11 11 11 12 13 13 14 15 16 16 16 16 17 18 18 18 19 20 19 19
2 2 2 2 2 1 2 5 5 4 5 6 4 3 1 4 4 5 9 9 8 7 6 6 6 7 7 6 6 8 11 12 13 12 11 11 12 10 9 8 8 8 8 8 9 10 11 10 10 9 7 8 9 10 11 12 13 13 13 12 11 11 10 10 11 11 12 12 12 12 13 14 14 15 15 16 17 18 19 19 19 20 20 21 22 20 19
2 2 2 2 1 1 4 6 7 6 3 2 3 2 2 3 1 4 8 8 7 7 7 6 5 5 7 8 8 10 11 10 11 12 12 12 11 9 8 7 7 7 7 7 8 8 8 8 8 7 6 7 8 8 10 11 11 11 11 11 11 12 13 13 14 15 15 15 14 14 15 15 15 16 16 17 18 19 20 20 21 21 22 23 24 24 22
2 2 3 2 1 2 5 6 5 5 2 2 2 2 2 3 5 7 9 9 8 9 9 8 7 8 10 11 10 9 9 8 8 10 12 12 11 8 6 6 5 5 7 7 7 7 7 7 6 6 6 7 8 8 9 10 10 10 10 11 12 12 13 15 16 17 17 17 17 17 17 17 17 17 17 18 18 19 20 20 21 22 23 24 25 26 26
2 3 3 2 1 4 8 5 4 5 3 1 1 4 6 7 9 10 9 9 9 10 10 10 11 11 11 10 9 9 8 7 9 10 11 11 11 9 8 8 7 6 7 7 6 7 7 6 6 6 6 7 8 8 8 9 10 10 11 12 13 13 14 15 17 18 18 18 18 19 19 19 19 19 19 19 20 20 21 21 22 23 23 23 24 26 27
2 3 2 2 2 3 7 5 4 4 3 2 4 6 7 7 8 8 8 7 8 9 11 10 10 10 10 9 9 8 7 7 9 10 10 9 9 10 11 9 6 7 6 5 5 6 6 6 5 4 5 5 5 5 5 6 8 9 10 11 12 13 14 15 17 18 19 19 19 19 19 19 19 20 20 21 22 21 21 22 23 23 23 23 23 25 26
3 4 3 4 4 4 5 6 6 6 8 9 9 9 8 7 7 6 7 7 7 8 10 11 10 9 9 9 8 7 6 6 7 10 10 9 9 10 11 8 6 7 5 4 6 7 5 4 4 4 4 3 4 4 4 6 8 9 10 11 13 14 15 15 17 18 19 19 19 19 19 19 19 19 20 21 21 21 20 20 21 21 21 21 21 22 22
5 6 6 6 6 6 7 8 7 7 9 9 10 10 9 6 6 6 7 8 9 9 9 9 8 7 7 7 7 6 6 5 7 11 11 9 9 10 10 8 6 6 4 6 8 6 2 1 1 2 2 3 5 7 9 10 12 12 13 14 15 16 17 17 18 19 19 19 19 19 19 18 17 18 19 20 21 20 19 19 20 20 21 23 24 24 24
3 4 5 6 6 6 7 7 7 8 9 9 8 8 7 6 6 7 8 9 10 10 10 9 8 7 7 6 6 5 5 4 7 11 11 9 8 8 8 7 4 6 5 7 6 3 1 2 2 4 6 7 10 11 11 11 13 14 15 16 16 17 18 18 19 19 18 18 18 18 18 18 18 18 19 20 21 21 20 21 22 23 22 23 24 24 25
4 4 5 6 6 6 6 7 6 6 7 7 7 7 6 6 7 7 9 10 8 7 7 7 7 6 6 6 5 4 5 6 8 10 10 9 8 8 8 7 4 4 4 5 4 3 6 7 7 8 9 10 11 12 12 12 13 13 14 14 14 15 16 17 18 17 16 17 18 18 19 19 19 20 20 21 22 22 21 21 22 23 24 23 23 24 25
5 5 6 5 5 5 6 7 7 6 5 6 7 7 7 7 7 7 8 9 8 6 6 6 7 6 6 6 5 5 5 7 7 8 11 10 10 10 9 5 3 2 2 4 5 7 9 9 8 9 9 9 10 11 11 11 10 10 10 11 12 12 13 14 15 16 16 17 18 19 19 20 20 20 21 21 22 23 22 21 21 22 24 25 24 25 27
4 3 4 4 4 4 5 6 7 6 5 6 7 7 7 6 6 6 6 7 8 7 5 6 8 7 5 6 6 5 6 6 4 7 11 9 7 6 5 3 3 2 4 4 5 7 8 7 8 9 9 7 7 8 7 7 7 7 8 10 11 11 12 12 14 15 16 17 18 18 18 19 21 21 21 20 21 22 22 22 22 22 23 24 24 25 27
4 2 3 4 4 4 4 5 6 5 4 5 6 7 7 6 6 6 6 5 6 5 5 6 12 10 7 8 6 4 5 8 9 10 9 5 2 2 2 3 4 5 6 6 6 7 7 7 7 7 5 4 5 5 5 6 7 8 9 9 10 12 13 13 14 15 16 17 17 18 19 20 21 22 22 22 20 20 21 23 24 25 25 25 24 23 25
5 4 5 5 5 4 4 5 6 5 6 6 6 6 6 5 4 4 3 3 5 5 3 5 13 14 12 10 7 5 7 12 12 9 5 2 2 4 6 8 9 7 6 7 7 6 4 4 4 3 5 7 6 5 6 6 8 10 10 10 11 12 12 12 12 14 15 17 18 19 19 20 20 21 21 21 21 22 23 24 24 25 26 25 24 23 22
5 5 7 7 6 4 4 5 6 7 9 9 6 6 7 7 8 8 7 7 9 8 6 9 12 13 11 9 8 9 12 13 10 6 5 6 7 8 9 9 9 8 8 6 4 2 4 4 4 6 9 8 5 5 6 7 9 10 10 10 12 12 12 12 12 14 15 17 18 19 19 19 20 20 20 20 20 21 24 25 26 27 26 24 23 22 21
5 5 7 7 6 5 4 5 5 6 9 9 7 6 8 9 8 6 4 5 8 9 10 11 13 14 14 12 11 10 10 9 8 7 8 9 10 10 9 7 5 6 8 6 3 4 6 7 8 10 10 6 5 7 8 8 9 11 11 11 11 10 10 10 11 12 14 15 15 17 18 19 20 21 21 21 20 19 20 22 26 29 30 26 23 22 23
5 5 6 6 6 5 5 5 5 5 6 8 7 7 7 6 5 2 0 1 6 9 9 6 6 10 14 12 9 7 5 6 7 6 6 9 10 7 6 5 3 6 7 5 4 6 9 10 11 10 7 5 7 8 7 7 10 12 11 9 9 8 8 8 8 10 12 14 14 16 18 19 19 20 20 19 19 18 17 18 21 26 30 29 26 23 23
6 7 6 6 5 4 4 6 6 6 7 8 7 5 3 2 2 4 2 1 5 8 9 6 5 8 10 9 6 4 3 3 4 4 4 6 6 3 3 3 2 6 6 6 9 11 10 8 8 6 5 6 7 7 6 8 11 12 10 9 9 8 7 7 9 12 13 14 15 16 17 19 19 19 18 17 18 18 18 18 20 23 26 27 26 24 24
6 6 6 5 6 5 4 4 4 5 8 9 6 2 1 2 2 1 2 2 5 7 10 10 10 9 8 8 7 6 6 6 7 7 6 5 4 3 4 4 6 8 9 10 12 10 7 5 5 5 6 8 8 7 7 9 10 11 10 9 8 7 7 9 12 13 13 14 14 15 16 18 18 16 15 15 15 16 16 18 20 22 24 26 25 25 26
5 6 5 5 6 5 2 0 2 3 5 8 6 4 4 5 5 4 2 2 7 9 9 10 11 11 12 11 10 9 9 7 5 3 2 1 1 2 3 4 6 8 10 11 10 8 5 5 6 6 7 8 8 8 8 9 9 10 9 7 7 8 9 11 13 13 12 14 15 14 14 15 15 15 14 13 14 15 16 18 20 21 22 24 24 26 26
6 6 6 6 6 5 5 4 1 1 3 5 6 6 6 6 4 3 4 3 7 8 8 11 13 14 13 11 8 6 4 2 1 2 2 3 4 4 4 5 6 9 11 12 11 9 7 6 7 7 8 8 9 8 8 9 10 10 8 6 8 9 10 12 14 13 12 14 15 14 14 14 13 13 14 14 15 16 17 18 20 22 23 25 25 23 21
6 6 7 5 3 2 4 5 3 2 1 2 6 6 5 6 5 1 1 4 7 7 8 12 14 13 11 9 5 2 1 2 2 3 5 5 5 5 5 6 7 9 11 12 12 9 7 8 8 7 7 8 9 9 7 8 10 9 7 7 8 10 11 12 13 13 12 13 14 13 13 13 12 13 14 15 16 17 18 20 22 21 20 18 15 12 11
5 5 6 3 1 2 3 4 3 3 4 1 4 8 9 9 6 3 3 5 5 4 7 13 14 11 9 7 4 3 2 2 3 4 4 3 3 3 5 6 6 8 9 10 9 8 9 10 9 6 6 9 9 8 6 7 8 8 8 8 9 10 11 11 11 12 13 14 15 14 14 14 13 14 15 16 16 18 19 19 17 15 12 10 8 8 8
6 5 5 4 4 3 1 2 3 4 4 4 2 7 9 8 5 4 4 5 5 6 11 14 14 10 7 5 4 4 3 3 4 3 2 2 3 4 5 5 5 6 8 8 9 10 10 8 5 5 7 8 7 5 5 7 8 7 6 7 8 10 10 10 11 13 15 16 16 15 15 15 16 16 16 17 16 16 14 12 8 7 7 8 9 9 8
8 6 6 7 5 3 5 5 5 3 3 4 3 3 6 4 3 5 7 5 4 9 14 15 12 8 6 5 4 2 1 2 3 2 3 3 4 5 5 6 6 7 9 9 9 7 5 3 3 6 8 7 6 4 4 6 8 7 4 5 8 9 8 9 12 15 16 16 15 14 15 15 16 16 15 13 10 8 6 4 4 5 8 10 10 9 6
6 1 4 5 5 6 7 5 4 3 5 4 1 1 2 2 4 8 8 4 5 11 15 14 11 8 5 4 3 1 1 1 2 3 4 3 4 5 7 8 8 8 9 8 4 1 1 2 4 6 7 6 4 2 2 6 8 6 3 5 9 9 8 10 13 15 17 17 15 14 15 15 14 13 12 9 6 6 7 8 9 10 11 12 12 11 11
2 2 3 6 7 6 5 4 3 3 3 1 3 3 3 6 6 8 8 5 9 15 15 12 10 8 6 4 2 0 1 2 3 4 5 5 6 7 8 10 9 8 8 6 2 2 2 4 4 4 5 6 4 3 4 8 8 4 3 7 10 9 8 11 13 14 16 18 16 15 16 16 15 14 13 10 8 8 10 11 11 11 12 13 13 15 17
2 1 4 6 5 5 5 4 3 1 3 4 5 7 6 7 5 5 7 7 12 16 14 11 11 9 6 3 1 2 2 3 4 5 7 7 7 8 10 11 9 7 6 3 1 0 3 4 3 4 5 6 4 3 5 7 7 5 4 6 9 8 7 9 12 13 15 16 15 15 16 16 16 16 14 13 12 12 12 13 13 12 12 13 15 17 19
7 2 1 2 2 2 2 1 3 3 4 4 4 7 8 7 7 7 6 7 12 17 16 14 13 10 5 3 3 4 4 5 6 6 7 8 8 9 11 11 9 8 6 2 1 1 2 2 3 3 3 3 3 2 3 5 6 6 6 5 8 9 8 7 9 12 14 15 14 14 14 14 16 17 15 14 14 15 16 15 14 13 13 14 17 19 21
7 7 5 4 3 3 4 4 5 5 5 6 5 5 6 8 8 7 6 6 9 16 17 15 13 11 8 6 6 6 6 6 7 7 8 8 8 10 11 11 8 7 7 5 2 1 1 1 1 2 4 4 3 1 2 6 5 5 6 4 7 10 10 8 7 8 11 13 13 12 12 13 15 17 16 15 15 16 16 15 13 12 14 16 18 20 22
6 5 4 5 6 6 6 7 8 7 5 4 4 5 6 6 5 6 8 8 8 13 13 11 11 11 10 8 9 10 9 9 8 8 7 8 9 10 11 10 7 7 8 6 4 3 3 2 3 3 5 5 2 2 4 6 4 6 6 4 7 10 10 8 7 7 9 12 12 11 11 13 15 17 18 18 17 16 16 15 14 13 14 17 19 21 22
8 7 6 7 8 6 5 5 7 6 6 9 10 9 8 8 7 8 9 6 9 12 10 7 8 8 7 7 8 9 10 12 12 11 10 10 9 9 8 6 5 7 7 5 3 2 2 3 4 3 5 4 3 2 6 6 3 8 7 5 6 8 9 9 9 8 9 12 12 11 11 13 15 17 18 18 17 16 16 15 15 15 16 18 19 21 21
5 5 7 10 11 12 13 14 12 7 7 11 15 13 9 10 10 10 9 5 5 8 7 7 7 7 6 6 6 6 7 10 12 13 13 12 10 9 8 6 6 6 4 3 2 2 2 2 2 3 5 3 3 3 9 8 5 9 9 6 5 6 8 10 10 10 10 12 13 12 12 13 16 17 17 17 17 16 15 15 15 17 18 18 19 19 20
5 6 7 9 9 11 15 17 14 11 11 13 14 14 12 12 12 10 9 8 7 7 6 7 8 9 9 8 7 7 8 10 12 13 14 13 12 11 10 9 7 4 4 4 5 4 2 2 3 6 4 3 2 4 9 10 7 8 9 7 6 6 8 10 11 11 11 12 13 13 13 14 15 16 16 16 16 16 16 16 17 18 18 18 18 19 19
7 9 9 8 7 6 8 11 11 11 11 13 14 15 13 12 12 12 11 9 10 11 9 9 7 6 8 10 10 9 7 7 7 8 9 9 8 8 10 10 7 4 3 5 6 4 3 4 6 5 2 3 1 4 6 7 7 6 6 6 6 6 7 9 10 11 12 13 13 12 13 13 14 15 15 16 16 17 17 17 18 18 18 19 19 18 18
9 10 9 7 6 5 4 4 7 10 12 12 13 14 12 11 12 12 12 12 12 12 9 9 8 6 7 8 8 8 6 5 5 5 5 5 5 8 11 10 8 5 4 6 6 5 4 5 5 2 5 4 3 5 6 5 5 6 7 7 8 9 8 8 9 10 12 13 12 11 11 12 13 14 14 15 16 16 17 17 18 18 18 18 18 18 17
12 10 7 6 5 5 4 4 6 9 11 11 11 11 10 11 13 12 11 12 13 12 10 10 11 10 9 8 7 7 7 7 8 8 7 5 4 8 10 10 9 8 8 8 7 5 5 4 4 6 7 4 4 5 5 4 3 4 6 8 10 11 9 8 10 12 14 14 13 13 12 11 11 13 14 15 15 15 16 17 18 18 18 17 17 16 16
6 5 5 6 7 6 3 3 9 11 12 14 13 9 6 4 10 13 12 11 11 11 11 12 11 11 10 9 8 8 8 7 6 8 11 10 6 6 7 7 7 8 9 8 5 3 3 5 8 8 6 4 5 5 4 3 3 3 3 5 8 10 10 9 9 11 13 13 13 13 13 12 12 14 14 14 14 14 15 16 17 17 16 15 15 14 14
5 4 4 4 5 5 3 3 7 8 9 14 16 11 5 3 3 7 8 8 7 7 8 10 12 12 13 12 10 9 9 7 5 5 10 12 8 5 5 4 5 7 9 8 4 3 5 9 10 7 5 6 7 6 3 3 3 4 4 3 4 8 10 11 10 11 11 12 13 13 13 13 12 13 12 12 12 13 13 14 15 14 14 13 13 12 12
8 6 4 4 2 1 1 2 3 5 8 12 13 10 6 4 4 4 5 6 7 8 8 7 6 8 11 15 14 11 8 7 6 6 8 9 7 5 4 4 5 8 9 8 5 5 7 9 10 7 6 7 6 5 4 4 4 4 4 4 5 7 9 9 9 9 10 10 11 12 12 12 12 12 11 10 11 11 11 12 12 11 11 10 10 10 9
4 3 1 2 0 1 2 2 3 4 6 8 7 5 5 7 8 7 6 6 8 9 9 7 6 6 7 12 16 14 11 10 9 9 8 8 6 5 4 4 4 7 9 8 6 5 6 8 9 8 6 5 5 5 5 6 6 6 6 6 6 6 6 6 7 7 7 7 7 7 8 9 10 9 8 8 9 10 10 9 9 9 9 9 9 8 8
4 4 3 3 5 7 7 6 6 4 4 6 7 7 10 11 9 7 5 5 7 10 12 12 11 10 8 6 8 11 14 16 14 12 11 10 8 7 7 7 5 6 9 10 8 7 7 8 8 8 6 5 5 7 7 7 7 8 8 7 7 6 6 6 6 6 6 6 5 5 6 7 8 7 7 8 9 10 10 10 10 9 9 9 9 9 8
Wind_Direction
324 97 87 80 75 18 22 49 45 34 32 25 20 16 137 116 112 142 147 115 116 128 122 117 122 125 130 134 124 113 106 98 93 86 81 78 73 70 64 59 63 62 61 66 68 69 66 63 73 83 89 92 93 96 102 103 100 99 103 113 124 139 149 145 141 144 150 155 163 173 177 174 171 176 183 186 196 210 222 238 224 204 195 201 203 203 204
267 167 106 94 87 32 22 46 46 46 49 29 4 359 64 95 108 122 112 99 95 100 100 110 117 126 137 133 122 114 107 99 93 87 80 77 70 63 58 53 51 50 49 49 50 49 45 43 46 52 62 74 86 94 97 93 89 93 99 103 108 111 110 121 133 140 146 150 157 169 176 179 181 182 187 191 202 216 225 238 219 203 197 201 207 209 208
221 210 141 121 121 133 83 47 25 25 44 34 7 4 50 81 98 107 104 100 101 125 141 132 126 136 152 125 114 106 104 100 96 89 82 79 74 65 57 50 45 43 40 40 43 44 40 38 38 40 43 48 57 71 86 91 88 86 89 94 101 101 91 92 136 145 148 154 161 164 166 170 178 188 193 196 206 217 219 226 211 199 199 203 212 217 214
275 341 348 142 142 132 84 45 14 359 3 44 38 4 8 74 116 112 103 103 117 129 132 128 124 118 102 115 113 109 107 100 93 89 82 76 72 64 57 50 43 39 38 37 38 37 36 36 35 36 39 41 43 45 53 79 94 83 75 75 79 81 73 62 82 129 137 135 134 151 165 167 167 188 203 204 218 229 230 240 246 238 229 219 222 235 237
18 350 343 1 104 90 49 24 351 326 304 120 82 41 13 31 103 111 110 135 149 125 122 125 121 108 85 91 97 101 103 93 82 79 76 72 68 61 56 51 43 37 38 39 39 38 36 36 35 37 40 41 41 41 46 60 74 74 70 68 66 62 57 53 56 63 75 81 75 78 111 148 162 200 231 240 246 248 247 253 256 259 262 251 238 239 246
355 338 356 25 61 70 26 329 315 310 311 90 95 85 49 21 20 93 119 130 116 107 120 124 109 94 81 74 71 75 85 86 82 82 78 73 70 62 57 55 47 41 40 39 40 40 38 37 38 41 42 42 42 44 47 53 58 61 63 64 60 56 52 48 47 47 50 53 52 50 52 51 62 144 282 295 277 256 252 261 265 265 268 265 256 246 245
196 353 27 42 61 89 88 339 349 355 13 46 81 97 88 77 84 85 93 102 90 87 103 108 100 94 88 82 79 79 85 89 90 86 79 73 70 60 52 52 47 43 43 41 38 37 36 38 40 41 39 40 43 46 47 49 51 54 56 56 53 50 47 43 39 37 36 33 31 32 35 36 42 48 39 21 354 304 274 272 277 279 278 274 267 257 252
137 72 59 81 104 44 27 3 1 9 16 14 31 75 86 101 122 120 106 105 106 107 109 104 100 98 93 86 84 85 87 89 90 90 87 82 78 72 62 55 51 52 53 52 46 42 40 42 42 39 35 34 39 45 48 49 49 52 53 51 46 43 41 37 33 29 26 22 17 12 10 13 19 22 24 24 17 3 338 312 298 293 293 288 280 271 262
89 109 80 84 92 9 6 352 344 360 2 338 337 56 52 33 109 134 130 123 121 120 116 110 107 103 94 83 77 83 88 89 90 94 98 99 98 94 87 80 73 69 67 63 58 54 51 47 43 38 34 31 33 39 46 49 47 49 50 46 41 38 34 29 26 25 21 14 9 5 1 360 357 355 354 352 351 353 351 342 329 315 306 300 291 282 274
73 116 103 93 117 40 334 287 296 327 313 306 307 77 43 354 354 65 109 114 114 115 117 119 115 99 86 80 80 86 90 93 92 91 93 101 108 107 102 98 91 81 74 69 63 59 57 52 45 37 30 26 28 35 43 46 44 42 42 37 32 30 25 21 17 15 14 9 5 3 1 357 351 345 341 336 330 330 331 330 327 322 319 314 304 292 283
63 91 102 98 120 124 295 299 317 345 302 305 326 54 42 320 340 38 83 96 97 101 109 114 111 98 92 102 101 89 90 92 93 91 90 94 101 107 109 108 103 94 84 76 70 68 68 65 59 49 36 27 29 31 35 41 43 40 34 28 21 17 14 12 8 3 2 1 358 355 351 347 342 335 330 326 320 316 316 316 313 310 309 310 309 303 292
71 74 79 71 87 88 302 304 309 302 294 314 8 84 205 282 328 53 78 83 80 81 79 75 85 99 115 130 114 100 100 96 95 101 105 106 109 116 123 121 114 110 104 93 84 78 78 80 75 66 56 49 45 37 35 41 42 31 19 11 7 6 4 1 356 353 352 351 348 346 343 339 337 332 327 323 318 314 313 311 308 304 301 300 301 302 298
68 99 97 73 76 328 299 294 295 298 309 16 53 125 210 252 304 83 90 88 74 66 70 75 77 88 106 115 110 103 102 100 103 114 121 121 121 122 130 132 128 126 119 105 94 85 78 76 72 66 63 60 53 44 40 39 30 17 10 7 7 5 1 357 355 355 357 356 351 347 343 337 332 329 326 324 322 320 317 313 307 302 299 296 295 295 294
6 94 98 85 96 311 302 294 309 338 31 99 81 85 83 65 75 84 86 89 83 72 74 87 96 95 96 99 97 97 102 107 117 126 125 121 120 116 99 88 95 113 112 97 88 89 80 64 53 49 51 47 38 35 36 27 15 11 14 13 6 358 354 355 355 355 353 350 348 345 344 342 337 332 328 324 322 321 322 320 315 308 301 297 295 292 289
10 61 68 87 111 329 330 336 3 18 36 161 117 89 81 70 77 85 86 88 92 89 86 91 99 101 98 95 90 88 91 92 97 107 111 116 126 126 98 64 44 65 94 94 85 84 76 58 45 40 42 37 25 25 28 17 9 9 7 1 355 351 351 352 350 349 347 345 343 342 341 340 337 334 331 327 323 322 321 322 323 320 312 305 300 295 292
39 66 61 84 100 2 3 33 64 53 50 54 64 77 75 59 60 72 77 75 79 91 95 92 92 95 95 96 96 94 93 92 93 97 96 97 108 110 96 75 39 39 67 87 90 81 63 51 52 49 49 42 12 6 15 8 2 1 355 352 353 353 353 349 345 343 341 339 339 338 336 335 332 330 329 326 323 323 321 321 322 324 323 319 310 302 298
69 98 101 89 82 50 37 57 74 69 65 63 62 68 69 58 51 56 62 55 54 77 92 91 89 90 90 91 94 94 95 94 97 101 96 86 90 95 91 79 46 30 43 85 93 81 58 48 54 48 43 17 328 341 21 18 12 11 9 8 7 2 356 349 343 339 335 333 332 332 331 330 329 328 327 324 321 322 323 324 326 328 332 334 330 324 320
71 76 81 78 71 58 54 59 61 62 67 69 67 69 70 66 62 63 64 58 51 60 75 82 84 84 85 90 93 94 95 90 94 99 94 80 77 84 87 80 41 13 34 92 96 85 71 105 105 44 16 346 352 23 34 24 18 16 11 7 3 358 353 347 341 337 333 330 329 328 328 329 328 327 327 326 325 326 327 329 330 331 333 334 332 330 330
100 85 86 88 88 82 74 70 62 59 67 73 76 79 82 80 78 77 75 70 62 58 62 67 68 67 71 78 82 92 108 111 101 98 94 90 85 82 88 90 50 5 43 90 105 108 81 89 78 40 29 27 30 34 29 15 11 6 0 357 355 351 347 343 339 335 332 329 328 328 329 329 327 326 327 328 329 329 330 329 328 326 327 328 326 324 324
94 107 112 110 110 106 94 85 75 64 65 73 82 88 89 87 85 84 85 85 80 74 77 81 78 72 66 58 52 66 78 73 76 84 84 84 83 81 86 87 48 1 45 78 79 64 56 53 49 39 31 29 28 26 18 8 3 359 355 353 349 343 338 334 332 331 330 329 330 329 328 328 326 324 324 325 325 326 327 327 325 324 322 323 323 321 319
88 106 116 114 109 99 90 88 89 84 75 74 80 83 82 80 76 75 86 97 103 110 124 131 123 114 105 88 73 73 75 63 60 74 79 70 59 58 64 59 3 339 70 72 52 50 48 43 40 35 29 24 17 10 6 0 355 355 357 353 347 343 337 329 324 325 326 326 324 322 320 319 318 317 317 318 319 319 320 320 321 322 321 321 322 320 317
98 125 130 125 114 97 95 101 108 115 115 106 100 93 88 88 87 86 90 94 99 113 140 134 110 101 110 109 92 90 116 126 111 88 82 70 50 49 50 12 333 31 81 86 69 54 44 36 31 26 24 20 5 354 356 3 1 359 355 347 345 345 341 332 324 321 324 324 320 318 316 313 310 309 308 310 311 312 313 313 311 310 311 313 317 318 316
124 131 125 122 116 114 123 126 129 136 134 127 124 117 113 122 132 136 137 125 123 155 188 142 120 122 134 132 125 123 124 115 104 97 94 79 50 87 62 10 21 56 74 77 67 55 44 29 18 14 3 331 319 336 7 15 4 353 344 340 340 338 334 329 323 319 321 322 318 315 312 307 305 305 304 305 306 306 309 309 306 303 302 305 309 312 315
115 100 96 98 102 111 122 115 111 100 82 88 106 113 116 118 99 90 108 124 129 157 191 125 127 139 145 145 155 153 99 81 79 88 94 49 48 88 71 42 36 44 50 50 48 46 30 3 349 319 284 288 309 358 19 2 346 343 339 334 331 327 320 317 313 310 309 306 302 301 300 299 299 300 301 303 303 304 308 310 308 306 304 305 308 312 317
108 106 112 113 112 118 111 93 88 82 78 81 87 88 86 76 56 42 37 56 79 94 91 86 97 108 105 95 94 99 92 82 72 60 38 34 58 78 70 50 36 27 23 26 28 357 331 323 292 273 284 300 334 20 9 349 345 348 343 334 327 319 312 310 309 307 305 301 297 297 296 297 298 297 297 298 299 302 307 311 311 310 308 307 312 318 322
104 109 117 113 98 90 90 78 66 66 72 74 79 89 88 76 60 41 30 59 82 91 95 93 94 98 98 88 78 79 83 79 66 44 37 58 75 75 64 55 34 360 351 352 343 310 302 294 281 284 297 323 10 11 355 348 354 355 351 344 334 325 321 318 314 313 315 314 312 309 307 304 302 298 294 292 292 295 302 308 311 313 313 313 318 321 321
78 79 90 93 78 69 90 109 110 107 97 85 84 99 104 101 110 127 264 128 122 114 108 107 104 106 109 104 87 75 74 76 68 46 48 77 86 75 61 65 26 340 335 330 300 283 283 283 288 298 317 353 6 358 350 356 4 1 352 345 342 341 337 332 327 330 334 334 332 327 321 315 309 304 298 293 289 289 295 303 307 309 311 313 316 318 318
57 59 68 88 92 81 100 125 128 126 115 98 82 68 46 35 155 159 151 127 128 122 118 116 104 97 101 101 95 99 117 107 91 78 78 92 97 95 109 126 309 314 310 289 282 288 296 303 311 322 341 349 354 0 1 0 4 1 350 344 351 349 339 333 336 338 340 340 335 329 325 322 317 313 309 301 293 289 294 302 306 304 306 311 315 317 319
66 69 68 81 98 96 92 103 111 117 121 123 128 148 343 3 22 78 118 116 103 96 91 88 85 85 87 89 97 112 114 102 94 88 81 85 99 127 160 193 236 258 269 279 288 296 308 320 319 319 328 339 355 8 360 354 360 359 350 348 351 346 340 342 343 342 340 338 332 328 331 335 334 330 324 315 308 304 304 307 307 303 305 312 315 316 318
92 88 73 60 68 69 53 184 185 170 155 153 158 155 117 84 49 9 345 94 103 99 90 85 88 93 95 97 102 106 102 97 94 85 62 63 141 173 190 211 233 248 264 280 291 299 301 291 285 297 320 343 359 359 350 352 357 353 345 342 340 339 342 344 342 339 338 337 334 331 333 339 341 339 333 325 318 314 310 308 307 304 305 310 311 311 314
101 94 83 63 45 23 341 313 310 107 126 132 132 124 106 94 78 359 335 45 95 99 95 95 101 106 109 111 114 115 112 112 277 267 245 238 229 217 214 223 236 249 262 273 280 285 283 273 281 305 327 345 355 353 348 351 352 346 339 337 338 343 347 343 339 339 340 339 338 336 333 333 334 332 325 318 313 312 310 309 308 308 309 311 310 310 310
114 106 96 77 39 352 316 315 344 14 19 123 137 144 136 120 118 98 18 91 104 102 104 114 122 128 131 135 142 155 198 249 246 220 214 219 219 219 228 237 240 247 259 268 269 268 270 279 296 320 340 350 356 356 347 345 349 351 351 350 349 350 349 344 341 342 343 340 339 340 339 335 328 320 315 314 314 313 312 311 311 314 319 319 317 320 321
122 115 104 87 30 321 301 312 356 8 337 314 153 150 142 137 151 185 163 133 125 111 119 131 138 142 145 153 175 192 189 185 181 182 193 208 212 227 244 247 246 253 259 260 261 267 278 288 300 324 345 348 352 352 341 340 350 356 353 353 353 349 346 347 349 348 345 341 338 338 342 341 336 328 322 319 316 314 315 316 317 323 333 338 341 350 350
104 118 136 167 197 209 246 344 16 18 6 9 89 129 132 140 172 191 163 146 140 134 141 147 150 151 155 166 178 177 164 153 157 166 195 242 252 267 268 260 259 265 262 262 274 282 282 281 296 329 340 340 342 339 333 343 359 4 355 352 353 349 348 357 3 357 351 346 343 343 344 346 346 342 332 323 320 322 325 327 330 338 349 357 1 5 12
118 145 174 189 194 154 93 58 17 8 53 54 48 106 126 141 173 151 134 134 147 149 154 157 152 147 157 173 177 177 154 143 162 205 256 263 263 276 279 272 273 274 269 272 283 283 264 255 309 328 329 331 332 329 333 354 10 18 11 356 1 6 11 16 13 8 4 2 2 5 8 5 360 353 344 337 339 350 1 15 33 35 29 25 23 24 33
109 183 194 163 125 86 75 56 10 29 88 90 71 150 151 231 212 168 153 168 178 160 155 153 150 152 169 178 174 170 153 161 213 244 248 247 259 272 277 278 280 279 278 286 300 302 185 290 316 328 337 343 345 347 11 16 19 25 30 18 19 26 30 24 16 13 16 20 23 23 23 22 19 13 8 11 30 58 65 62 58 53 48 43 46 58 72
94 341 44 85 85 73 68 65 53 63 91 177 222 213 267 288 246 182 166 173 171 161 156 156 160 165 169 165 163 223 224 216 243 251 248 250 259 268 274 279 279 275 277 286 317 64 5 325 327 358 26 45 64 72 40 29 29 33 37 31 33 37 33 22 17 15 21 29 34 30 25 28 32 33 37 51 73 78 72 68 67 64 58 57 65 77 84
298 190 82 71 64 54 54 62 66 17 276 253 212 196 223 275 267 197 179 176 169 166 166 168 167 163 155 148 173 243 245 234 237 248 253 253 256 266 274 275 273 273 274 262 168 70 335 340 5 35 52 63 63 38 23 29 38 55 65 44 42 44 35 20 18 22 28 33 33 28 25 29 35 44 59 79 89 87 81 76 73 71 68 69 78 86 90
331 315 126 109 86 49 16 279 250 255 263 260 218 193 205 236 246 233 224 203 179 173 173 171 164 159 155 173 208 233 243 238 235 241 247 247 252 264 271 271 269 268 264 237 171 282 319 9 39 37 28 1 330 335 20 28 40 74 96 65 40 42 41 27 25 33 37 37 32 27 29 36 42 52 70 84 86 84 83 78 72 74 79 83 88 93 95
326 337 354 22 21 341 299 274 266 259 245 241 245 245 243 241 228 225 254 257 195 175 171 170 169 171 177 195 218 237 243 232 229 234 241 248 254 261 270 281 281 256 239 242 260 242 168 123 39 360 354 335 295 253 26 17 34 95 115 74 42 44 44 39 42 44 43 42 38 32 33 43 51 60 73 84 86 86 87 85 80 82 88 92 94 96 98
263 294 333 354 343 333 342 350 341 327 309 288 272 263 267 272 249 233 256 257 201 172 168 173 181 189 195 205 223 236 235 228 225 222 225 239 248 250 263 281 277 225 216 234 242 208 202 243 267 306 342 337 279 253 350 3 49 126 133 86 56 52 45 48 69 74 59 55 54 47 44 52 59 65 75 85 91 91 92 92 92 95 98 99 100 100 99
238 244 249 259 256 243 242 283 303 318 328 317 302 281 260 259 259 261 267 243 171 163 173 187 190 194 204 217 232 237 229 223 223 220 218 232 245 246 248 251 215 194 208 235 231 211 241 253 248 292 327 311 253 303 355 10 97 145 146 113 79 64 52 58 83 98 83 69 64 59 59 66 69 70 76 85 93 95 96 95 96 100 103 102 101 100 100
246 240 235 236 229 215 214 229 242 240 241 265 280 283 265 242 240 258 275 262 184 177 190 199 198 204 215 231 248 251 234 225 225 223 224 234 247 249 244 224 195 193 221 235 201 190 202 200 226 311 319 276 241 357 17 37 116 156 156 131 102 84 68 68 89 111 106 85 74 71 73 78 79 80 82 87 92 96 100 102 104 107 107 105 103 102 103
266 265 255 250 246 232 220 219 221 218 218 233 258 274 264 237 225 235 251 257 256 251 228 200 197 208 210 206 212 226 236 237 232 224 226 236 245 242 232 218 210 223 240 220 203 197 190 213 292 312 300 234 228 23 37 54 92 141 151 140 127 110 82 76 92 113 115 102 90 82 79 82 86 89 92 94 97 100 103 106 108 110 110 110 110 110 109
261 257 256 267 280 267 226 206 203 211 221 233 253 264 254 226 216 225 231 237 254 256 230 194 189 214 219 209 203 210 232 253 245 225 224 234 230 210 200 203 214 234 226 204 202 204 218 262 292 297 230 178 110 59 59 58 64 91 117 133 146 136 99 83 94 112 118 117 111 99 90 90 92 94 98 101 104 107 109 109 111 113 114 113 113 113 111
288 272 264 272 290 294 268 224 210 218 228 240 257 268 256 223 211 219 225 229 243 250 230 197 194 219 237 232 219 212 222 254 266 254 254 253 210 185 187 201 219 226 204 195 202 217 243 268 275 223 169 152 93 80 85 78 70 76 82 100 132 141 121 99 101 110 117 122 123 116 109 104 98 98 104 108 108 111 115 115 116 118 118 116 114 113 112
302 304 307 306 302 299 291 256 220 220 233 248 264 279 269 230 208 208 220 230 239 248 243 221 209 209 219 233 235 222 221 235 240 232 231 235 211 193 198 212 226 227 214 203 207 232 255 249 198 165 160 145 102 96 108 117 119 101 84 91 115 134 135 123 115 113 115 120 122 119 118 117 110 107 110 111 111 115 119 119 118 120 119 117 116 116 116
308 334 339 326 323 332 333 214 201 211 232 245 250 269 299 250 207 209 221 232 238 243 242 230 216 204 205 216 226 227 232 248 249 220 210 209 205 194 200 211 221 220 212 201 195 218 220 180 159 152 151 138 121 124 141 166 177 175 141 105 109 122 133 141 136 125 121 124 126 122 119 119 119 118 116 113 113 117 121 121 123 125 124 123 125 127 127
312 306 283 278 301 327 328 221 211 225 255 260 251 250 281 324 219 206 213 227 247 267 263 240 222 211 207 207 210 218 231 251 264 217 201 203 204 198 196 196 193 194 193 185 158 132 153 159 151 135 117 121 130 135 145 160 163 171 181 170 131 121 127 136 140 137 134 137 141 139 133 129 130 133 133 129 128 130 131 132 134 134 133 134 135 135 136
302 290 245 214 232 310 336 289 266 266 273 271 259 243 240 266 268 245 222 219 239 274 290 277 246 228 215 206 203 207 218 226 217 189 182 190 200 207 206 197 186 184 184 176 154 137 149 158 153 135 115 123 139 143 135 132 130 119 115 128 138 133 130 132 138 142 144 147 150 149 146 143 146 151 153 150 146 145 144 144 145 147 149 150 149 147 148
310 327 232 189 199 40 49 16 334 287 271 281 283 263 248 258 264 258 241 219 226 249 266 268 270 279 252 213 202 202 202 199 194 189 186 191 205 220 221 209 193 188 185 181 176 175 173 169 162 152 142 152 173 173 157 149 146 132 114 112 123 132 136 141 147 151 154 158 160 160 160 160 163 166 170 172 171 167 165 166 170 172 174 175 176 177 179
71 60 74 88 68 64 66 54 31 13 345 332 321 287 262 257 253 241 228 225 236 245 245 239 243 262 270 238 212 213 207 197 193 193 196 200 212 227 230 231 235 218 197 188 187 195 199 190 179 174 175 182 187 181 171 162 157 152 144 140 139 140 142 147 151 152 156 162 165 166 171 177 180 178 173 169 169 170 174 182 189 193 197 200 203 201 196